Home > Weather > Pasco > Past weeks

Flag for USA Weather for the Past 2 Weeks in Pasco, Washington, USA

Now
61 °F

Clear.


Feels Like: 61 °F
Forecast: 48 / 88 °F
Wind: 3 mph from East

Location: Tri-Cities Airport

Current Time: May 3, 2016 at 12:48:14 AM

Latest Report: May 2, 2016 at 11:53 PM


Visibility: 10 mi

Pressure: 29.93 "Hg

Humidity: 58%

Dew Point: 46 °F

Location of PascoLocation

Historic Weather in Pasco — Graph

°F

Pasco Temperature Yesterday

Maximum temperature yesterday: 86 °F (at 3:53 PM)
Minimum temperature yesterday: 42 °F (at 5:53 AM)
Average temperature yesterday: 65 °F

High & Low Weather Summary for the Past Weeks

 TemperatureHumidityPressure
High87 °F (Apr 20, 4:53 PM)96% (Apr 20, 4:53 AM)30.25 "Hg (Apr 20, 4:53 AM)
Low33 °F (Apr 25, 5:53 AM)14% (Apr 24, 4:53 PM)29.52 "Hg (Apr 22, 2:53 AM)
Average61 °F52%29.95 "Hg
* Reported Apr 17 10:53 PM — May 2 10:53 PM, Pasco, Weather by CustomWeather, © 2016

Note: Actual official high and low records may vary slightly from our data, if they occured in-between our weather recording intervals... More about our weather records

Advertising

Pasco Weather History for the Previous 24 Hours

Scroll right to see more
 ConditionsComfort  
Time TempWeatherWind HumidityBarometerVisibility
10:53 PM
Mon, May 2
56 °FClear.5 mph75%29.94 "Hg10 mi
9:53 PM68 °FClear.5 mph49%29.94 "Hg10 mi
8:53 PM63 °FSunny.6 mph60%29.93 "Hg10 mi
7:53 PM78 °FSunny.6 mph30%29.91 "Hg10 mi
6:53 PM84 °FSunny.10 mph21%29.91 "Hg10 mi
5:53 PM84 °FSunny.8 mph27%29.93 "Hg10 mi
4:53 PM86 °FSunny.8 mph20%29.94 "Hg10 mi
3:53 PM86 °FSunny.8 mph23%29.95 "Hg10 mi
2:53 PM85 °FSunny.6 mph26%29.98 "Hg10 mi
1:53 PM82 °FSunny.8 mph33%30.01 "Hg10 mi
12:53 PM79 °FSunny.6 mph36%30.03 "Hg10 mi
11:53 AM74 °FSunny.3 mph45%30.06 "Hg10 mi
10:53 AM70 °FSunny.3 mph49%30.07 "Hg10 mi
9:53 AM65 °FSunny.3 mph54%30.08 "Hg10 mi
8:53 AM61 °FSunny.3 mph58%30.09 "Hg10 mi
7:53 AM55 °FSunny.3 mph67%30.08 "Hg10 mi
6:53 AM46 °FSunny.No wind89%30.07 "Hg10 mi
5:53 AM42 °FClear.3 mph92%30.05 "Hg10 mi
4:53 AM43 °FClear.No wind93%30.04 "Hg10 mi
3:53 AM45 °FClear.No wind90%30.03 "Hg10 mi
2:53 AM44 °FClear.6 mph89%30.02 "Hg10 mi
1:53 AM51 °FClear.No wind77%30.01 "Hg10 mi
12:53 AM48 °FClear.9 mph83%30.00 "Hg10 mi
Weather by CustomWeather, © 2016

See weather overviewHow to use our weather pages